• In Hungary
  • List of Countries
  • For 7 days
  • Water Temperature
  • Satellite Maps
  • Weather Map
  • News
  • Weather Widgets
  • user-avatar
    Login

    Hourly Weather Ko Phi Phi Don

    Today, 19 November, Sunday

    Time Temperature Precipitation Wind Pressure Humidity
    00:00 +28°C° 0.2 mm 2 mps 756 mmHg 86%
    01:00 +28°C° 0 mm 2 mps 756 mmHg 87%
    02:00 +28°C° 0.3 mm 2 mps 756 mmHg 88%
    03:00 +27°C° 0.3 mm 2 mps 756 mmHg 89%
    04:00 +27°C° 0.3 mm 2 mps 756 mmHg 90%
    05:00 +27°C° 0.8 mm 2 mps 756 mmHg 90%
    06:00 +27°C° 0.8 mm 2 mps 756 mmHg 90%
    07:00 +28°C° 0 mm 2 mps 756 mmHg 88%
    08:00 +29°C° 0.2 mm 2 mps 756 mmHg 82%
    09:00 +31°C° 0.2 mm 2 mps 757 mmHg 75%
    10:00 +32°C° 0.2 mm 2 mps 757 mmHg 69%
    11:00 +35°C° 0 mm 2 mps 757 mmHg 63%
    12:00 +36°C° 0 mm 2 mps 756 mmHg 58%
    13:00 +37°C° 0 mm 2 mps 756 mmHg 53%
    14:00 +36°C° 0.3 mm 2 mps 755 mmHg 60%
    15:00 +34°C° 0.3 mm 3 mps 755 mmHg 67%
    16:00 +33°C° 0.3 mm 3 mps 754 mmHg 75%
    17:00 +32°C° 0.8 mm 4 mps 755 mmHg 79%
    18:00 +30°C° 0.8 mm 4 mps 755 mmHg 84%
    19:00 +28°C° 0.8 mm 4 mps 755 mmHg 88%
    20:00 +28°C° 0.4 mm 4 mps 756 mmHg 88%
    21:00 +28°C° 0.4 mm 4 mps 756 mmHg 88%
    22:00 +28°C° 0.4 mm 4 mps 757 mmHg 88%
    23:00 +28°C° 0.1 mm 4 mps 757 mmHg 88%

    Tomorrow, 20 November, Monday

    Time Temperature Precipitation Wind Pressure Humidity
    00:00 +28°C° 0.1 mm 4 mps 757 mmHg 88%
    01:00 +28°C° 0.1 mm 3 mps 756 mmHg 89%
    02:00 +28°C° 0.2 mm 3 mps 756 mmHg 89%
    03:00 +27°C° 0.2 mm 3 mps 756 mmHg 90%
    04:00 +27°C° 0.2 mm 3 mps 755 mmHg 90%
    05:00 +27°C° 0.6 mm 3 mps 756 mmHg 90%
    06:00 +27°C° 0.6 mm 3 mps 756 mmHg 90%
    07:00 +27°C° 0.6 mm 3 mps 756 mmHg 90%
    08:00 +29°C° 0.5 mm 3 mps 756 mmHg 84%
    09:00 +30°C° 0.5 mm 3 mps 757 mmHg 77%
    10:00 +33°C° 0.5 mm 3 mps 757 mmHg 70%
    11:00 +34°C° 0.1 mm 3 mps 757 mmHg 67%
    12:00 +34°C° 0.1 mm 3 mps 756 mmHg 63%
    13:00 +35°C° 0.1 mm 3 mps 756 mmHg 60%
    14:00 +34°C° 0.8 mm 3 mps 755 mmHg 66%
    15:00 +33°C° 0.8 mm 4 mps 755 mmHg 72%
    16:00 +32°C° 0.8 mm 4 mps 754 mmHg 78%
    17:00 +30°C° 1.9 mm 4 mps 755 mmHg 81%
    18:00 +29°C° 1.9 mm 4 mps 755 mmHg 84%
    19:00 +28°C° 1.9 mm 3 mps 755 mmHg 87%
    20:00 +28°C° 0.9 mm 3 mps 756 mmHg 87%
    21:00 +28°C° 0.9 mm 3 mps 756 mmHg 87%
    22:00 +28°C° 0.9 mm 2 mps 757 mmHg 86%
    23:00 +27°C° 0.1 mm 2 mps 757 mmHg 87%

    Day after tomorrow, 21 November, Tuesday

    Time Temperature Precipitation Wind Pressure Humidity
    00:00 +27°C° 0.1 mm 2 mps 756 mmHg 88%
    01:00 +27°C° 0.1 mm 2 mps 756 mmHg 89%
    02:00 +27°C° 0 mm 2 mps 756 mmHg 90%
    03:00 +27°C° 0 mm 2 mps 755 mmHg 91%
    04:00 +26°C° 0 mm 2 mps 755 mmHg 92%
    05:00 +26°C° 0.7 mm 2 mps 755 mmHg 92%
    06:00 +26°C° 0.7 mm 2 mps 755 mmHg 91%
    07:00 +27°C° 0.7 mm 2 mps 756 mmHg 91%
    08:00 +28°C° 0.5 mm 2 mps 756 mmHg 83%
    09:00 +30°C° 0.5 mm 2 mps 757 mmHg 75%
    10:00 +32°C° 0.5 mm 1 mps 758 mmHg 67%
    11:00 +32°C° 0.1 mm 1 mps 757 mmHg 65%
    12:00 +34°C° 0.1 mm 2 mps 756 mmHg 63%
    13:00 +34°C° 0.1 mm 2 mps 756 mmHg 61%
    14:00 +34°C° 0.1 mm 2 mps 755 mmHg 63%
    15:00 +32°C° 0.1 mm 2 mps 754 mmHg 65%
    16:00 +32°C° 0.1 mm 2 mps 753 mmHg 67%
    17:00 +31°C° 0.1 mm 2 mps 754 mmHg 71%
    18:00 +30°C° 0.1 mm 2 mps 754 mmHg 75%
    19:00 +29°C° 0.1 mm 2 mps 755 mmHg 79%
    20:00 +28°C° 0 mm 1 mps 756 mmHg 80%
    21:00 +28°C° 0 mm 1 mps 756 mmHg 81%
    22:00 +28°C° 0 mm 1 mps 757 mmHg 82%
    23:00 +28°C° 0 mm 1 mps 757 mmHg 84%

    22 November, Wednesday

    Time Temperature Precipitation Wind Pressure Humidity
    00:00 +28°C° 0 mm 1 mps 756 mmHg 85%
    01:00 +27°C° 0 mm 1 mps 756 mmHg 87%
    02:00 +27°C° 0 mm 1 mps 755 mmHg 88%
    03:00 +27°C° 0 mm 1 mps 755 mmHg 88%
    04:00 +27°C° 0 mm 1 mps 755 mmHg 89%
    05:00 +27°C° 0.3 mm 2 mps 755 mmHg 89%
    06:00 +27°C° 0.3 mm 2 mps 755 mmHg 89%
    07:00 +27°C° 0.3 mm 2 mps 756 mmHg 88%
    08:00 +29°C° 0.1 mm 2 mps 756 mmHg 82%
    09:00 +30°C° 0.1 mm 2 mps 757 mmHg 76%
    10:00 +31°C° 0.1 mm 2 mps 757 mmHg 70%
    11:00 +32°C° 0.3 mm 2 mps 756 mmHg 67%
    12:00 +33°C° 0.3 mm 1 mps 756 mmHg 64%
    13:00 +34°C° 0.3 mm 1 mps 755 mmHg 61%
    14:00 +33°C° 0.5 mm 1 mps 754 mmHg 66%
    15:00 +32°C° 0.5 mm 1 mps 754 mmHg 71%
    16:00 +31°C° 0.5 mm 1 mps 753 mmHg 76%
    17:00 +30°C° 1.7 mm 1 mps 754 mmHg 79%
    18:00 +29°C° 1.7 mm 1 mps 754 mmHg 83%
    19:00 +28°C° 1.7 mm 1 mps 755 mmHg 87%
    20:00 +28°C° 0.5 mm 1 mps 756 mmHg 88%
    21:00 +28°C° 0.5 mm 2 mps 756 mmHg 89%
    22:00 +27°C° 0.5 mm 2 mps 757 mmHg 91%
    23:00 +27°C° 0 mm 2 mps 756 mmHg 91%

    23 November, Thursday

    Time Temperature Precipitation Wind Pressure Humidity
    00:00 +27°C° 0 mm 3 mps 756 mmHg 92%
    01:00 +27°C° 0 mm 3 mps 755 mmHg 92%
    02:00 +26°C° 0 mm 3 mps 755 mmHg 92%
    03:00 +26°C° 0 mm 3 mps 755 mmHg 93%
    04:00 +26°C° 0 mm 3 mps 754 mmHg 93%
    05:00 +26°C° 0 mm 3 mps 755 mmHg 93%
    06:00 +26°C° 0 mm 3 mps 755 mmHg 92%
    07:00 +26°C° 0 mm 3 mps 756 mmHg 92%
    08:00 +28°C° 0 mm 3 mps 756 mmHg 84%
    09:00 +30°C° 0 mm 2 mps 757 mmHg 75%
    10:00 +32°C° 0 mm 2 mps 757 mmHg 67%
    11:00 +34°C° 0.1 mm 2 mps 756 mmHg 64%
    12:00 +34°C° 0.1 mm 1 mps 756 mmHg 62%
    13:00 +35°C° 0.1 mm 1 mps 755 mmHg 59%
    14:00 +33°C° 1.2 mm 1 mps 754 mmHg 67%
    15:00 +32°C° 1.2 mm 1 mps 754 mmHg 75%
    16:00 +30°C° 1.2 mm 1 mps 753 mmHg 83%
    17:00 +29°C° 1.4 mm 2 mps 754 mmHg 84%
    18:00 +29°C° 1.4 mm 2 mps 755 mmHg 86%
    19:00 +28°C° 1.4 mm 3 mps 755 mmHg 87%
    20:00 +28°C° 0.4 mm 3 mps 756 mmHg 87%
    21:00 +27°C° 0.4 mm 3 mps 756 mmHg 88%
    22:00 +27°C° 0.4 mm 4 mps 757 mmHg 88%
    23:00 +27°C° 0.2 mm 4 mps 756 mmHg 89%

    24 November, Friday

    Time Temperature Precipitation Wind Pressure Humidity
    00:00 +27°C° 0.2 mm 4 mps 756 mmHg 89%
    01:00 +26°C° 0.2 mm 4 mps 755 mmHg 89%
    02:00 +26°C° 0.4 mm 4 mps 755 mmHg 89%
    03:00 +26°C° 0.4 mm 4 mps 755 mmHg 89%
    04:00 +26°C° 0.4 mm 4 mps 755 mmHg 90%
    05:00 +26°C° 0.5 mm 4 mps 755 mmHg 89%
    06:00 +26°C° 0.5 mm 5 mps 756 mmHg 89%
    07:00 +27°C° 0.5 mm 5 mps 756 mmHg 89%
    08:00 +28°C° 0 mm 5 mps 756 mmHg 84%
    09:00 +28°C° 0 mm 5 mps 757 mmHg 80%
    10:00 +29°C° 0 mm 6 mps 757 mmHg 75%
    11:00 +29°C° 0 mm 6 mps 757 mmHg 76%
    12:00 +29°C° 0 mm 6 mps 756 mmHg 78%
    13:00 +29°C° 0 mm 6 mps 755 mmHg 79%
    14:00 +28°C° 0.1 mm 5 mps 755 mmHg 82%
    15:00 +28°C° 0.1 mm 5 mps 754 mmHg 85%
    16:00 +28°C° 0.1 mm 5 mps 754 mmHg 88%
    17:00 +27°C° 0 mm 5 mps 755 mmHg 89%
    18:00 +27°C° 0 mm 5 mps 755 mmHg 90%
    19:00 +27°C° 0 mm 4 mps 755 mmHg 92%
    20:00 +27°C° 0 mm 4 mps 756 mmHg 92%
    21:00 +27°C° 0 mm 4 mps 756 mmHg 92%
    22:00 +27°C° 0 mm 4 mps 756 mmHg 92%
    23:00 +27°C° 0 mm 4 mps 756 mmHg 92%
    Show more